Nanning Wuxu Airport
ZGNN : now visible

Airfield :











YOU CAN JOIN US ON...

 
LOGIN :

Register | Disclaimer

   EN    FR    IT 

 









Legend :    VFR   Marginal VFR   IFR   Intensive IFR   Very Intensive IFR
Visi :
Ceiling :
>= 8 km
>= 3000ft
5 to 8 km
1000 to 3000 ft
1500m to 5 km
500 to 1000 ft
800 to 1500m
200 to 500 ft
< 800m
< 200 ft
Symbols :   Thunderstorms  Fog  Heavy snow  Heavy precipitations  Wind > 20 kt






- Airport Elevation : 421 ft
- IATA code : NNG


ZGNN - Nanning Wuxu

CURRENT METAR :
  • 011500Z 06003MPS 3000 -RA BR FEW003 SCT006 OVC023 15/14 Q1016 NOSIG

EXPIRED METARs :
  • 011400Z 09003MPS 060V130 5000 -DZ BR FEW005 SCT007 OVC026 15/14 Q1015 NOSIG
  • 011300Z 09003MPS 6000 -DZ FEW005 SCT008 OVC026 15/14 Q1014 NOSIG

TAF TAF ZGNN
Valid from the 01 at 12:00 until the 02 at 12:00 UTC


010909Z 0112/0212 10003MPS 5000 BR SCT010 OVC026 TX17/0207Z TN15/0122Z
TEMPO 0122/0204 2000 -RA BR FEW002 BKN008 OVC023



MET'MAP, your aeronautical weather chart ! - Copyright ORBIFLY December 2007 - Disclaimer

ORBIFLY MET'MAP TEAM :

Programming & Development : Alexandra Zaïnal
Concept & original design : Baudouin d'Aumeries
Assistance for programming : Marc-Olivier Méhu
Technical & hardware support : Manuel Goepfert

Contact : metmap@orbifly.com




SOURCES & CREDITS :

   NOAA       Earth
Advisory